Regional Weather Roundup
Issued by NWS

Home | Current Version | Previous Version | Graphics & Text | Print | Product List | Glossary On
Versions: 1 2 3 4 5 6 7 8 9 10 11 12 13 14 15 16 17 18 19 20 21 22 23 24 25 26 27 28 29 30 31 32 33 34 35 36 37 38 39 40 41 42 43 44 45 46 47 48 49 50
000
ASUS43 KTOP 221459
RWRKS

WEATHER ROUNDUP FOR KANSAS
NATIONAL WEATHER SERVICE GOODLAND KS
900 AM CST MON JAN 22 2018

NOTE:  "FAIR" INDICATES FEW OR NO CLOUDS BELOW 12,000 FEET WITH NO
SIGNIFICANT WEATHER AND/OR OBSTRUCTIONS TO VISIBILITY.

KSZ001>006-013>018-027>032-041>047-221600-
NORTHWEST KANSAS

CITY           SKY/WX    TMP DP  RH WIND       PRES   REMARKS
GOODLAND       CLOUDY    24  19  81 NW26      29.87R HAZE    WCI   8
HAYS           SNOW      32  30  92 NW35G46   29.68R VSB 1/2 WCI  17
HILL CITY      FOG       31  30  96 NW29G47   29.76R VSB 1/4 WCI  16
RUSSELL        SNOW      33  32  96 NW36G44   29.64R VSB 1/2 WCI  18
$$

KSZ061>065-074>080-084>089-221600-
SOUTHWEST KANSAS

CITY           SKY/WX    TMP DP  RH WIND       PRES   REMARKS
DODGE CITY     LGT SNOW  32  26  78 NW30G47   29.78R WCI  18
GARDEN CITY    PTSUNNY   31  25  78 NW35G47   29.84R WCI  15
GREAT BEND     LGT RAIN  33  29  85 NW25G38   29.67R WCI  20
LIBERAL        SUNNY     31  23  72 NW30G40   29.90R WCI  16
$$

KSZ066>073-081>083-090>101-221600-
SOUTHEAST KANSAS

CITY           SKY/WX    TMP DP  RH WIND       PRES   REMARKS
COFFEYVILLE    CLOUDY    40  27  59 SW22G29   29.61R WCI  30
HUTCHINSON     CLOUDY    34  33  96 NW20G30   29.58R WCI  23
MEDICINE LODGE   N/A     41  29  62 NW23G45   29.69R
NEWTON         LGT SNOW  32  31  96 NW18G25   29.54R FOG     WCI  20
PARSONS        CLOUDY    40  29  64 SW20G29   29.58S WCI  30
WICHITA INTL   LGT SNOW  36  34  92 W25G31    29.58R FOG     WCI  24
WICHITA JABRA  LGT SNOW  33  33 100 W22       29.55R FOG     WCI  21
WICHITA MCCONL FLURRIES  34  32  91 W20G28    29.56R WCI  23
WINFIELD       CLOUDY    39  31  72 W24G35    29.61R WCI  28
$$

KSZ007>012-019>026-033>040-048>060-102>105-221600-
NORTHEAST KANSAS

CITY           SKY/WX    TMP DP  RH WIND       PRES   REMARKS
CONCORDIA      FLURRIES  33  31  92 NW22G35   29.52R WCI  21
EMPORIA        CLOUDY    36  32  85 SW15      29.47R WCI  27
LAWRENCE       CLOUDY    37  34  89 S13       29.46F WCI  29
MANHATTAN      LGT SNOW  35  32  88 W6        29.48R FOG
OLATHE IND     CLOUDY    36  33  89 S14       29.47F WCI  27
OLATHE EXE     CLOUDY    35  32  88 S13G20    29.47F WCI  26
SALINA         LGT SNOW  34  33  96 NW22G31   29.56R VSB 1   WCI  22
TOPEKA BILLARD CLOUDY    36  35  96 VRB6      29.46S
TOPEKA FORBES  CLOUDY    37  34  89 S10       29.45S WCI  30
$$




USA.gov is the U.S. government's official web portal to all federal, state and local government web resources and services.